OBJECT AF, 67277

Orbit data source: Space-Track

You're viewing an Uncataloged Satellite

Recently launched and/or uncataloged satellites may have evolving metadata. Metadata may include but not limited to: Owner, Maufacturer, Bus, Motor, and Mission.

OBJECT AF, 67277 is a satellite in SSO that was launched on Sun, 28 Dec 2025 UTC via a SOYUZ-2-1B launch vehicle from the Vostochny Cosmodrome (VOSTO). Unknown objects in Earth's orbit typically refer to objects detected orbiting the Earth but have not yet been identified or cataloged. These objects could be anything from previously untracked satellites, spent rocket stages, debris from satellite collisions, or even natural meteoroids temporarily captured by Earth's gravity.

Loading next visibility...
Identifier
67277, 2025-313AF
Orbit
SSO
Country
Flag of TBDTBD
Related business
None
Manufacturer
Unknown
Mission
Operational Commercial Communications
Bus & Motor
Unknown
Mass
Unknown
Launch date (UTC)
2025-12-28 (6 months ago)
Launch vehicle
SOYUZ-2-1B
Launch site
Vostochny Cosmodrome (VOSTO)
Object type
Unknown
Shape & HBR
Box, 0.1 m
Radar Cross Section
0.035 m², Medium (>0.1 m² and < 1m²)

Expand to show TLE details & history
Last TLE update: 16 hours ago

TLE from 16 hours ago
0 OBJECT AF
1 67277U 25313AF  26171.17933034  .00004829  00000-0  21011-3 0  9991
2 67277  97.3904 245.6719 0013426   3.7492 356.3843 15.22638720 26408
Epoch: 2026-06-20T04:18Z
TLE epoch observation values (Epoch: 2026-06-20T04:18:14.141Z)
Latitude
0.00001°
Longitude
-87.28469°
Altitude
491.764 km
Speed
7.624 km/s
True Right ascension
16h 22m 41s
True Declination
0° 00' 00"
Sunlit
Object was in full shadow at epoch
Visualization orbit readout
Latitude
Unknown
Longitude
Unknown
Altitude
Unknown
Speed
Unknown
Apparent Right ascension
Unknown
Apparent Declination
Unknown
Sunlit
N/A
Visualization observer readout
Local Sidereal Time
07:21:20
Azimuth
Unknown
Elevation
Unknown
Doppler factor
Unknown
Orbital elements
Apogee altitude
504.074 km
Perigee altitude
485.619 km
Semi-major axis
6,872.984 km
Eccentricity
0.00134
Inclination
97.3904°
RAAN
245.6719°
Arg. of periapsis
3.7492°
True anomaly
356.37458°
Mean anomaly
356.3843°
Eccentric anomaly
356.37944°
Mean motion
3.80912 °/min
Orbital period
94.51 mins
BSTAR
0.00021011
Loading maneuver chart data...
Computing Atmospheric mass density...
Loading historical data...
Loading historical data...
Loading historical data...
Loading historical data...
Loading historical data...
Loading historical data...
Loading historical data...

Documentation

Showing up to 5 results
|